Regional Weather Roundup
Issued by NWS Wakefield, VA

Home | Current Version | Previous Version | Graphics & Text | Print | Product List | Glossary On
Versions: 1 2 3 4 5 6 7 8 9 10 11 12 13 14 15 16 17 18 19 20 21 22 23 24 25 26 27 28 29 30 31 32 33 34 35 36 37 38 39 40 41 42 43 44 45 46 47 48 49 50
757
ASUS41 KAKQ 240615
RWRAKQ

REGIONAL WEATHER ROUNDUP
NATIONAL WEATHER SERVICE WAKEFIELD VA
200 AM EDT SAT JUN 24 2017

Note: "fair" indicates few or no clouds below 12,000 feet with no
significant weather and/or obstructions to visibility. * = Denotes
station may not report precipitation (e.g., rain,snow,etc.),
thunder or fog.

VAZ042-051-052>054-056-240700-
NORTHERN VIRGINIA

CITY           SKY/WX    TMP DP  RH WIND       PRES   REMARKS
WASH NATIONAL  LGT RAIN  83  72  69 SW12      29.66F
DULLES         LGT RAIN  76  72  87 SW7       29.66F
FORT BELVOIR   MOCLDY    82  70  65 S7        29.65F
QUANTICO       LGT RAIN  84  72  67 SW15G24   29.66F
FREDERICKSBRG* LGT RAIN  82  72  72 S13G18    29.66F
STAFFORD*      LGT RAIN  80  70  72 S10G17    29.71F
WARRENTON      LGT RAIN  79  69  71 S6        29.65F
CULPEPER*      LGT RAIN  78  73  83 S7        29.66F
MANASSAS*      LGT RAIN  77  72  84 VRB5      29.66F
LEESBURG*      RAIN     N/A N/A N/A SW8G16    29.67F
WINCHESTER     LGT RAIN  72  70  94 S5        29.64F
FRONT ROYAL*   CLOUDY    73  70  88 SW3       29.63F
LURAY*         DRIZZLE   72  70  94 SW3       29.65F
$$

VAZ048-049-060>072-079>083-240700-
CENTRAL AND SOUTH CENTRAL VIRGINIA

CITY           SKY/WX    TMP DP  RH WIND       PRES   REMARKS
RICHMOND       CLOUDY    82  73  74 S22G31    29.72F
CHESTERFIELD*  FAIR      82  73  74 S15G26    29.73F
PETERSBURG*    CLOUDY    80  72  75 S10G22    29.76F
HANOVER        CLOUDY    83  70  64 S22G31    29.72F
TAPPAHANNOCK*  CLOUDY    82  65  55 S12G18    29.72F
QUINTON*       FAIR      81  75  83 S7G21     29.72F
CHARLOTTSVILLE CLOUDY    79  71  76 S13       29.66F
GORDONSVILLE*  CLOUDY    78  72  81 S9G16     29.66F
ORANGE*        RAIN      75  70  83 S8        29.66F
LOUISA*        PTCLDY    84  73  70 S8        29.67F
BUMPASS*       FAIR      80  72  77 S7G21     29.69F
FARMVILLE*     CLOUDY    82  68  61 S14G21    29.70F
CREWE*         FAIR      81  69  68 S10G22    29.74F
FORT PICKETT*  FAIR      80  73  81 S18G31    29.75F
CHASE CITY*    FAIR      81  75  84 S10G20    29.76F
CLARKSVILLE*   FAIR      79  75  89 S18       29.77F
SOUTH HILL*    CLOUDY    79  75  89 S16G24    29.84F
LAWRENCEVILLE* FAIR      79  75  87 S12G20    29.78F
EMPORIA*       CLOUDY    79  73  83 S8G16     29.81F
$$

VAZ088>098-240700-
SOUTHEAST VIRGINIA

CITY           SKY/WX    TMP DP  RH WIND       PRES   REMARKS
NORFOLK        MOCLDY    81  75  82 SW24G30   29.79F
VIRGINIA BEACH PTCLDY    79  71  76 SW17G29   29.80F
NORFOLK NAVAL  PTCLDY    81  73  76 SW15G29   29.80F
WEST POINT*    CLOUDY    82  73  74 S13G23    29.75F
SALUDA*        FAIR      82  75  81 S13G21    29.73F
NEWPORT NEWS   PTCLDY    81  75  82 SW18G24   29.77F
LANGLEY AFB    PTCLDY    81  76  84 S22G29    29.77F
FORT EUSTIS    PTCLDY    81  76  85 S12G20    29.75F
WILLIAMSBURG*  CLOUDY    82  75  78 SW9G18    29.77F
HR EXEC AP*    FAIR      79  72  78 SW14G22   29.78F
FRANKLIN*      CLOUDY    79  73  83 S15G21    29.80F
US460-WAKEFLD  MOCLDY    81  76  84 SW10G17   29.77F
$$

VAZ020-022-025-037-045-240700-
WEST CENTRAL AND SOUTHWEST VIRGINIA

CITY           SKY/WX    TMP DP  RH WIND       PRES   REMARKS
STAUNTON*      CLOUDY    73  69  89 SW7       29.69F
WAYNESBORO*    CLOUDY    76  70  83 S12G20    29.69F
HOT SPRINGS VA LGT RAIN  66  64  94 W26G33    29.83F VSB 1/2
LYNCHBURG      CLOUDY    79  69  71 S21G29    29.70F
DANVILLE       PTCLDY    80  74  81 SW12G25   29.77F
SOUTH BOSTON*  FAIR      81  73  76 S13G23    29.75F
MARTINSVILLE   HVY RAIN  76  70  83 SW12G25   29.81R
ROANOKE        LGT RAIN  74  72  93 SW16G26   29.75R
BLACKSBURG     CLOUDY    69  66  88 W6        29.86R
DUBLIN*        CLOUDY    70  60  69 SW13      29.86S
MARION*        PTCLDY    65  62  88 W10       29.95F
HILLSVILLE*    MOCLDY    66  60  81 CALM      29.91R
RICHLANDS*     CLOUDY    62  62 100 W7        29.96F
WISE*          CLEAR     61  61 100 CALM      29.98S
ABINGDON*      PTCLDY    66  65  97 W3        29.95F
$$

MDZ021>025-VAZ099-100-240700-
SOUTHERN MARYLAND AND THE DELMARVA PENINSULA

CITY           SKY/WX    TMP DP  RH WIND       PRES   REMARKS
PATUXENT RIVER MOCLDY    82  72  71 S14G21    29.69F
BAY BRIDGE APT PTCLDY    82  72  69 S10       29.66F
LEONARDTOWN    CLOUDY    81  70  69 S8G17     29.71F
DOVER          CLOUDY    82  77  85 S22       29.65F
GEORGETOWN     CLOUDY    84  72  67 SW15G25   29.70F
EASTON         CLOUDY    83  72  69 SW13G22   29.72F
CAMBRIDGE      CLEAR     82  73  74 S12G18    29.69F
SALISBURY      PTCLDY    81  74  79 SW16G23   29.72F
OCEAN CITY     CLOUDY    78  75  90 SW15      29.74F
WALLOPS ISLAND MOCLDY    74  74 100 S12       29.75F
ACCOMACK*      CLOUDY    82  76  80 SW16G28   29.75F
$$

NCZ012>017-030>032-240700-
NORTH CENTRAL AND EASTERN NORTH CAROLINA

CITY           SKY/WX    TMP DP  RH WIND       PRES   REMARKS
ROANOKE RAPIDS MOCLDY    79  75  89 S15G22    29.82F
RALEIGH        MOCLDY    80  75  84 SW18G29   29.84F
ELIZABETH CITY CLEAR     79  71  76 S20G28    29.85F
AHOSKIE*         N/A     77  73  87 S12G17    29.84F
EDENTON*       CLEAR     80  70  70 SW16G23   29.88S
CURRITUCK*     CLEAR     80  70  71 SW9G22    29.85F
KILL DEVIL HLS CLEAR     79  72  78 SW9G18    29.87F
MANTEO         CLEAR     79  73  83 SW22G28   29.88F
CAPE HATTERAS  CLOUDY    80  75  84 SW16G25   29.94F
TARBORO*       NOT AVBL
GOLDSBORO      CLEAR     78  76  94 SW13G22   29.87F
WASHINGTON     CLEAR    N/A N/A N/A SW10G17   29.90S
GREENVILLE     CLEAR     79  70  73 SW14G20   29.90F
NEW BERN       CLEAR     78  73  84 SW12G21   29.92F
WILMINGTON     CLEAR     80  75  84 SW17G30   29.94F
$$

VAZ048-240700-
ELSEWHERE

CITY           SKY/WX    TMP DP  RH WIND       PRES   REMARKS
HARRISBURG PA  TSTM      72  71  97 NW9       29.64S FOG
BALTIMORE      LGT RAIN  81  72  74 SW12      29.65F
ANNAPOLIS      CLOUDY    82  72  71 VRB7      29.64F
ANDREWS AFB    LGT RAIN  81  70  69 S17       29.66F
PHILADELPHIA   MOCLDY    83  71  67 SW15G25   29.64F
HENDERSON NC   PTCLDY    77  71  81 S16G28    29.81F
GREENSBORO     CLOUDY    77  75  93 SW21G31   29.83S
ROCKY MOUNT    CLEAR     78  74  87 S13       29.85F
$$

VAZ100-240700-
MARINE

STATION/POSITION TIME  TEMP    WIND        PRES    WAVE   SWELL
                       AIR SEA DIR/SP/G            HT/PER HT/PER
                 (UTC) (F)     (DEG/KT/KT) (MB)    (FT/S) (FT/S)
BRANDYWINE LGT   0548          220/ 22/ 24   N/A
CAPE MAY NJ      0548   78 68  200/ 11/ 16 1005.2F
LEWES DE         0548          240/ 11/ 17   N/A
15NM E FENWICK I 0550   72 67  200/ 19/ 21 1006.9F   4/ 6
OCEAN-CITY-INLET 0548   67 63  220/ 15/ 17 1007.1F
WACHAPREAGUE VA  0548   80 81  200/ 11/ 18 1007.4F
THOMAS POINT MD  0600   82 78  200/ 19/ 21   N/A
GOOSES REEF MD   0600   82 78  250/ 19/ 23 1005.1    2/ 2
COVE POINT MD    0548   82     220/ 19/ 22 1006.0F
SOLOMONS ISLAND  0548          210/ 14/ 19   N/A
BISHOPS HEAD MD  0548   83 81  200/ 18/ 20 1006.3F
PINEY POINT MD   0548          230/ 18/ 22   N/A
POTOMAC MD       0600   83 78  240/ 21/ 25 1005.1    2/ 3
CAMBRIDGE MD     0548   83 81              1006.2F
LEWISETTA VA     0548   83 78  230/ 18/ 23 1005.7F
RAPPAHANNOCK LGT 0548          190/ 23/ 26 1007.8F
STINGRAY PT      0600   81 78  240/ 21/ 27 1007.2    2/ 3
YORK RVR RNG VA  0548   81     220/ 21/ 25 1007.9F
YORKTOWN VA      0548   81 77  210/ 17/ 24 1007.3F
JAMESTOWN VA     0600   81                   N/A
DOMINION TERM VA 0548   80     210/ 17/ 22 1008.7F
KIPTOPEKE VA     0548      73  220/ 18/ 22   N/A
CHES BAY BRIDGE  0548   80 71  230/ 24/ 29 1008.2F
CAPE HENRY VA    0548   80     200/ 10/ 19   N/A
WILLOUBY STN VA  0548   81     210/ 26/ 32 1008.1F
S CRANEY ISL VA  0548   80     210/ 14/ 19 1008.7F
CAPE HENRY BUOY  0530      72                N/A     4/ 6
1ST LANDING BUOY 0600   78 71              1008.6    2/ 3
CAPE CHARLES BUO 0551      67                N/A     4/ 6
64NM E OF VA BCH 0550   74 71  210/ 21/ 23 1010.7F   6/ 6
DUCK PIER NC     0548   80 62  200/ 20/ 26 1010.4F
44100 DUCK FRF   0505      70                N/A     4/ 6
OREGON INLET NC  0548          210/ 25/ 32   N/A
HATTERAS NC      0548   79 79  220/ 13/ 18 1013.6F
DIAMOND SHLS NC  0550   81 80  220/ 23/ 25 1013.8F   8/ 6   2/ 9
CAPE LOOKOUT NC  0600   80     220/ 12/ 16 1013.9F
$$




USA.gov is the U.S. government's official web portal to all federal, state and local government web resources and services.